Flag for Romania Weather past 2 weeks in Iasi, Romania

Now
64 °F

Thunderstorms. Passing clouds.


Feels Like: 64 °F
Forecast: 52 / 60 °F
Wind: 9 mph from Northwest

Location: Iasi Airport

Current Time: Sep 22, 2014 at 9:26:33 PM

Latest Report: Sep 22, 2014 at 8:30 PM


Visibility: N/A

Pressure: 29.62 "Hg

Humidity: 83%

Dew point: 59 °F

Location of IasiLocation

Historic Weather in Iasi — Graph

°F

Iasi temperature yesterday

Maximum temperature yesterday: 73 °F (at 1:00 PM)
Minimum temperature yesterday: 59 °F (at 8:30 AM)
Average temperature yesterday: 67 °F

Past Weeks' High & Low Weather Summary

 TemperatureHumidityPressure
High84 °F (Sep 10, 3:00 PM)100% (Sep 8, 5:30 AM)30.30 "Hg (Sep 8, 5:30 AM)
Low41 °F (Sep 19, 6:30 AM)19% (Sep 19, 3:30 PM)29.59 "Hg (Sep 22, 5:00 PM)
Average67 °F54%30.05 "Hg
* Reported Sep 7 8:00 PM — Sep 22 8:00 PM, Iasi, Weather by CustomWeather, © 2014

Note: Actual official high and low records may vary slightly from our data, if they occured in-between our weather recording intervals... More about our weather records

Advertising

Iasi weather history for previous 24 hours

 ConditionsComfort  
Time TempWeatherWind HumidityBarometerVisibility
8:00 PM
Sep 22
64 °FThunderstorms. Scattered clouds.12 mph83%29.62 "HgN/A
7:30 PM64 °FThunderstorms. Scattered clouds.14 mph83%29.62 "HgN/A
7:00 PM70 °FThunderstorms. Scattered clouds.16 mph64%29.62 "HgN/A
6:00 PM77 °FSunny.5 mph47%29.59 "Hg10 mi
5:30 PM77 °FPassing clouds.5 mph44%29.59 "HgN/A
5:00 PM77 °FPassing clouds.5 mph44%29.59 "HgN/A
4:30 PM77 °FPassing clouds.5 mph44%29.62 "HgN/A
4:00 PM81 °FScattered clouds.7 mph39%29.62 "HgN/A
3:30 PM81 °FScattered clouds.5 mph42%29.62 "HgN/A
3:00 PM81 °FPassing clouds.5 mph42%29.65 "HgN/A
2:30 PM79 °FPassing clouds.7 mph42%29.65 "HgN/A
2:00 PM79 °FPassing clouds.7 mph45%29.68 "HgN/A
1:30 PM79 °FSunny.5 mph45%29.68 "Hg10 mi
1:00 PM79 °FSunny.7 mph45%29.68 "Hg10 mi
12:30 PM77 °FSunny.5 mph51%29.71 "Hg10 mi
12:00 PM75 °FSunny.5 mph54%29.71 "Hg10 mi
11:30 AM73 °FPassing clouds.5 mph53%29.71 "HgN/A
11:00 AM73 °FSunny.5 mph61%29.74 "Hg10 mi
10:30 AM70 °FSunny.5 mph69%29.74 "Hg10 mi
10:00 AM66 °FPassing clouds.5 mph78%29.74 "HgN/A
9:30 AM64 °FPassing clouds.5 mph83%29.74 "HgN/A
9:00 AM63 °FPassing clouds.5 mph88%29.77 "HgN/A
8:30 AM61 °FSunny.2 mph94%29.77 "Hg10 mi
8:00 AM59 °FSunny.2 mph94%29.77 "Hg10 mi
7:30 AM57 °FClear.2 mph100%29.77 "Hg10 mi
7:00 AM57 °FClear.5 mph94%29.77 "Hg10 mi
6:30 AM55 °FClear.5 mph100%29.77 "Hg10 mi
6:00 AM55 °FClear.5 mph100%29.77 "Hg10 mi
5:30 AM57 °FClear.5 mph94%29.77 "Hg10 mi
5:00 AM57 °FClear.5 mph94%29.77 "Hg10 mi
4:00 AM59 °FClear.5 mph94%29.77 "Hg10 mi
3:00 AM61 °FClear.5 mph88%29.80 "Hg10 mi
2:00 AM61 °FPassing clouds.5 mph88%29.80 "HgN/A
1:00 AM63 °FPassing clouds.7 mph83%29.83 "HgN/A
12:00 AM63 °FPassing clouds.7 mph83%29.83 "HgN/A
11:00 PM
Sep 21
63 °FClear.12 mph83%29.83 "Hg10 mi
10:00 PM64 °FLight rain. Clear.7 mph78%29.86 "HgN/A
9:00 PM66 °FPassing clouds.9 mph73%29.86 "HgN/A
Weather by CustomWeather, © 2014

See weather overviewHow to use our weather pages